Location: Newark
(51.8900°N, 2.0780°W)
Time: 11:22:04
(UTC+00:00)

Envisat - Pass Details

Date: 30 November 2019
Orbit: 764 x 766 km, 98.1° (Epoch: 15 December)

Event Time Altitude Azimuth Distance (km) Brightness Sun altitude
Rises 05:49:15 0° 25° (NNE) 3,244 6.4 -18.0°
Reaches altitude 10° 05:52:13 10° 43° (NE) 2,312 5.9 -17.5°
Maximum altitude 05:55:52 20° 89° (E) 1,737 5.8 -17.0°
Drops below altitude 10° 05:59:30 10° 135° (SE) 2,299 6.4 -16.4°
Sets 06:02:25 0° 152° (SSE) 3,220 6.9 -16.0°
